IRIDIUM 33 DEB, 35080

Orbit data source: Space-Track

IRIDIUM 33 DEB, 35080 is space debris in LEO originally from a launch on Sun, 14 Sep 1997 UTC launched from the Tyuratam Missile And Space Complex (TTMTR). The debris from Iridium 33, an American commercial communications satellite, has been tracked extensively since its accidental collision with the defunct Russian satellite Cosmos 2251 in 2009. This event, occurring at high speed in low Earth orbit (LEO), generated thousands of pieces of space debris, significantly increasing the risk of further collisions. The Iridium 33 debris cloud has impacted space traffic management and orbital debris mitigation strategies, making it a subject of ongoing study in space situational awareness.

Loading next visibility...
Identifier
35080, 1997-051PF
Orbit
LEO
Country
Flag of USUS
Related business
Manufacturer
Unknown
Mission
Spacecraft
Bus & Motor
Unknown
Mass
Unknown
Launch date (UTC)
1997-09-14 (29 years ago)
Launch vehicle
Unknown
Launch site
Tyuratam Missile And Space Complex (TTMTR)
Object type
Payload
Rocket body
Debris
Shape & HBR
Unknown shape, 0.1 m
Radar Cross Section
Small (<0.1 m²)

Expand to show TLE details & history
Last TLE update: 15 hours ago

TLE from 15 hours ago
0 IRIDIUM 33 DEB
1 35080U 97051PF  26167.88762234  .00316558  00000-0  97481-2 0  9999
2 35080  86.2159 320.8057 0027592 233.3321 126.5393 15.32000531724884
Epoch: 2026-06-16T21:18Z
TLE epoch observation values (Epoch: 2026-06-16T21:18:10.570Z)
Latitude
0.00007°
Longitude
96.10846°
Altitude
484.316 km
Speed
7.617 km/s
True Right ascension
21h 23m 13s
True Declination
0° 00' 00"
Sunlit
Object was in full shadow at epoch
Visualization orbit readout
Latitude
Unknown
Longitude
Unknown
Altitude
Unknown
Speed
Unknown
Apparent Right ascension
Unknown
Apparent Declination
Unknown
Sunlit
N/A
Visualization observer readout
Local Sidereal Time
22:46:23
Azimuth
Unknown
Elevation
Unknown
Doppler factor
Unknown
Orbital elements
Apogee altitude
485.562 km
Perigee altitude
447.79 km
Semi-major axis
6,844.813 km
Eccentricity
0.00276
Inclination
86.2159°
RAAN
320.8057°
Arg. of periapsis
233.3321°
True anomaly
126.79281°
Mean anomaly
126.5393°
Eccentric anomaly
126.66611°
Mean motion
3.83266 °/min
Orbital period
93.93 mins
BSTAR
0.0097481
Loading maneuver chart data...
Computing Atmospheric mass density...
Loading historical data...
Loading historical data...
Loading historical data...
Loading historical data...
Loading historical data...
Loading historical data...
Loading historical data...

Documentation

Showing up to 5 results
|